Miscellaneous Local Product
Issued by NWS Hastings, NE

Home | Current Version | Previous Version | Text Only | Print | Product List | Glossary On
Versions: 1 2 3 4 5 6 7 8 9 10 11 12 13 14 15 16 17 18 19 20 21 22 23 24 25 26 27 28 29 30 31 32 33 34 35 36 37 38 39 40 41 42 43 44 45 46 47 48 49 50
000
AXUS43 KGID 302102
MISGRI

GID CWA HOURLY WEATHER ROUNDUP
NATIONAL WEATHER SERVICE HASTINGS NE
400 PM CDT SUN APR 30 2017

NOTE: "FAIR" INDICATES FEW OR NO CLOUDS BELOW 12,000 FEET WITH NO
SIGNIFICANT WEATHER AND/OR OBSTRUCTIONS TO VISIBILITY.

...SOUTH CENTRAL NEBRASKA...

CITY           SKY/WX    TMP DP  RH WIND       PRES   REMARKS
GRAND ISLAND   LGT SNOW  36  36 100 N32G44    29.56F FOG     WCI  23
HASTINGS       CLOUDY    37  34  89 N23G32    29.58F WCI  26
KEARNEY        CLOUDY    34  30  86 N22G30    29.62R WCI  22
ORD            SNOW      33  33 100 N16G26    29.71F VSB 1/2 WCI  23
YORK           CLOUDY    37  37 100 NE31G45   29.52F WCI  25
AURORA         LGT RAIN  37  36  99 N21G31    29.58R WCI  26
LEXINGTON      SNOW      34  32  92 N31G41    29.65F VSB 1/4 WCI  20
HOLDREGE       DRIZZLE   34  32  92 N25G33    29.62F WCI  21
HEBRON         CLOUDY    40  40  97 NE23G29   29.50F FOG     WCI  30

...NEBRASKA PANHANDLE...

CITY           SKY/WX    TMP DP  RH WIND       PRES   REMARKS
CHADRON        SUNNY     57  22  25 N17G24    29.88F
ALLIANCE       CLOUDY    55  22  27 N25G31    29.83F
SCOTTSBLUFF    SUNNY     57  23  26 N20G30    29.87F
SIDNEY         CLOUDY    53  23  31 N32G40    29.82F

...WESTERN AND NORTH CENTRAL NEBRASKA...

CITY           SKY/WX    TMP DP  RH WIND       PRES   REMARKS
VALENTINE      CLOUDY    52  14  22 N21G35    29.81F
AINSWORTH      CLOUDY    45  22  41 NE21G31   29.79F
ONEILL         LGT SNOW  34  32  94 N20G26    29.72F VSB 1   WCI  22
BROKEN BOW     LGT SNOW  34  33  96 N28G33    29.72R FOG     WCI  21
IMPERIAL       CLOUDY    46  21  37 N28G40    29.77F
NORTH PLATTE   LGT SNOW  35  31  85 N23G35    29.77F VSB 3/4 WCI  23
MCCOOK         LGT SNOW  34 N/A N/A N29G41    29.70S WCI  20

...EASTERN NEBRASKA...

CITY           SKY/WX    TMP DP  RH WIND       PRES   REMARKS
NORFOLK        RAIN      37  36  93 NE14G23   29.67S FOG     WCI  29
SO SIOUX CITY  HVY RAIN  39  38  96 NE13G18   29.67R FOG     WCI  31
TEKAMAH        RAIN      41  39  93 N13       29.64S FOG
COLUMBUS       CLOUDY    37  34  87 NE16G31   29.66S WCI  28
ALBION         LGT SNOW  36  33  89 N9        29.69R WCI  29
OMAHA EPPLEY   LGT RAIN  44  40  85 N13       29.61S FOG
OFFUTT AFB     LGT RAIN  44  42  93 N12       29.57F
MILLARD        RAIN      45  43  93 N5        29.59F
LINCOLN        CLOUDY    42  40  92 N22G36    29.53R
NEBRASKA CITY  CLOUDY    45  45 100 NE16G25   29.49S
BEATRICE       LGT RAIN  44  43  97 NE20G26   29.49F
FALLS CITY     CLOUDY    52  50  93 E10       29.46F

...NORTHERN KANSAS...

CITY           SKY/WX    TMP DP  RH WIND       PRES   REMARKS
GOODLAND       CLOUDY    34  30  85 N23       29.73F WCI  22
HILL CITY      MIX PCPN  35  34  96 N25G39    29.64F FOG     WCI  23
PHILLIPSBURG   LGT RAIN  37  37 100 NW24G32   29.60F WCI  26
HAYS           CLOUDY    38  35  89 N37       29.54F WCI  25
RUSSELL        LGT RAIN  40  38  93 N26G33    29.51S WCI  29
CONCORDIA      CLOUDY    43  41  93 N13G24    29.48S
SALINA         LGT RAIN  49  44  83 N17       29.44S
TOPEKA         CLOUDY    52  45  77 S20G30    29.47R



USA.gov is the U.S. government's official web portal to all federal, state and local government web resources and services.